Regional Weather Roundup
Issued by NWS

Home | Current Version | Previous Version | Graphics & Text | Print | Product List | Glossary On
Versions: 1 2 3 4 5 6 7 8 9 10 11 12 13 14 15 16 17 18 19 20 21 22 23 24 25 26 27 28 29 30 31 32 33 34 35 36 37 38 39 40 41 42 43 44 45 46 47 48 49 50
000
ASUS43 KLSX 240310
RWRMO

WEATHER SUMMARY FOR MISSOURI
NATIONAL WEATHER SERVICE SPRINGFIELD MO
900 PM CST THU FEB 23 2017

NOTE: "FAIR" INDICATES FEW OR NO CLOUDS BELOW 12,000 FEET WITH NO
       SIGNIFICANT WEATHER AND/OR OBSTRUCTIONS TO VISIBILITY.
       CURRENT SKY AND/OR WEATHER CONDITIONS ARE NOT AVAILABLE FOR
       CHILLICOTHE AND FARMINGTON.

MOZ001>031-035>038-043-044-053-054-240400-
...NORTHERN AND WESTERN MISSOURI...

CITY           SKY/WX    TMP DP  RH WIND       PRES   REMARKS
KANSAS CTY INT PTCLDY    48  45  89 E14       29.39F
KANSAS C DTWN  CLEAR     50  46  86 E8        29.39F
LEE`S SUMMIT   CLOUDY    50  48  93 E15       29.39F
ST JOSEPH      CLOUDY    48  45  89 NE9       29.44S
CHILLICOTHE      N/A     50  47  89 NE12      29.46F
KIRKSVILLE     CLOUDY    50  48  93 NE8       29.48F

$$
MOZ066>068-077>081-088>096-101>105-240400-
...SOUTHWEST MISSOURI...

CITY           SKY/WX    TMP DP  RH WIND       PRES   REMARKS
SPRINGFIELD    CLEAR     68  49  50 S16       29.47R
JOPLIN         CLEAR     74  46  36 S24G36    29.40S
BRANSON        PTCLDY    68  48  49 S10G17    29.52R

$$
MOZ032>034-039>042-045>050-055>058-069>072-240400-
...CENTRAL MISSOURI...

CITY           SKY/WX    TMP DP  RH WIND       PRES   REMARKS
COLUMBIA       PTCLDY    63  55  75 SE13      29.43F
JEFFERSON CITY CLEAR     61  53  75 SE10      29.44F
ROLLA          CLEAR     63  56  78 S13       29.48R
SEDALIA        PTCLDY    60  52  74 NE3       29.43R
WHITEMAN AFB   PTCLDY    52  52 100 E5        29.40F
WARRENSBURG    CLEAR     50  46  87 NE7       29.40F

$$
MOZ051-052-059>065-240400-
...EAST CENTRAL MISSOURI...

CITY           SKY/WX    TMP DP  RH WIND       PRES   REMARKS
ST LOUIS INTL  PTCLDY    66  54  65 SE10      29.54S
SPIRIT OF STL  PTCLDY    62  56  80 E5        29.52S
ST CHARLES     MOCLDY    63  56  78 SE10      29.53S

$$
MOZ072>076-082>087-097>100-106>115-240400-
...SOUTH CENTRAL AND SOUTHEAST MISSOURI...

CITY           SKY/WX    TMP DP  RH WIND       PRES   REMARKS
CAPE GIRARDEAU MOCLDY    65  54  67 S10G20    29.61S
FARMINGTON     CLOUDY    65  55  70 S15G25    29.56F
POPLAR BLUFF   PTCLDY    67  56  67 S10       29.60S
WEST PLAINS    CLOUDY    65  57  75 S14       29.56S

$$




USA.gov is the U.S. government's official web portal to all federal, state and local government web resources and services.